GFSSGP_sfc_dewp_273.txt.gz
Dewpoint
60 51 44 35 35 39 31 33 38 42 43 47 47 50 51 52 54 55 58 57 58 63 67 66 75 74 74 75 75 76 77 77 76 76 75 75 75 75 74 73 72 72 72 72 71 71 71 71 71
43 34 36 32 30 39 42 35 39 43 47 47 49 50 51 56 59 55 52 56 59 64 67 66 75 75 74 74 75 76 76 76 75 75 74 74 73 73 72 71 71 71 71 70 70 70 70 70 71
37 32 30 29 26 32 45 35 42 49 48 45 43 49 50 56 59 53 55 58 60 63 66 73 75 75 74 74 74 75 75 74 73 73 73 73 72 72 71 70 70 69 69 69 69 70 71 71 72
30 29 29 26 25 26 35 38 44 45 44 44 43 45 53 57 56 57 56 57 59 60 65 75 76 75 74 73 73 74 73 73 73 73 73 72 72 71 70 70 68 68 69 70 71 71 71 71 71
27 25 23 24 24 27 38 41 42 41 41 41 40 42 51 59 61 59 57 55 55 57 64 69 75 75 74 73 73 73 73 73 73 72 72 71 71 71 70 69 69 70 71 72 72 72 71 71 70
19 19 19 19 27 31 37 42 41 40 40 39 39 43 51 59 60 59 55 52 52 56 61 69 75 75 75 74 74 74 75 74 74 73 72 72 71 70 69 69 70 71 70 69 69 68 68 70 70
18 18 15 18 31 34 39 44 40 40 38 41 41 42 49 51 54 55 52 52 53 56 60 64 66 72 74 75 75 75 74 73 72 72 72 71 71 70 71 71 71 69 65 63 64 66 68 70 70
15 16 14 14 19 41 41 43 42 41 41 43 41 38 44 50 53 51 50 52 51 53 56 59 62 63 65 66 73 73 72 71 71 68 68 70 71 71 72 72 67 60 64 65 66 65 66 68 68
15 13 14 13 15 37 40 39 43 45 45 44 43 41 45 54 54 51 50 49 50 51 53 54 55 58 59 59 66 71 71 70 66 66 68 69 62 58 58 65 64 62 62 63 65 66 67 68 68
12 14 16 20 21 25 34 39 42 46 45 44 45 49 51 55 55 50 47 46 48 49 51 53 55 55 54 55 67 64 62 55 55 53 54 54 54 57 51 58 62 62 65 67 69 68 69 67 57
12 14 19 20 23 24 29 34 41 43 41 43 44 50 52 53 55 49 44 45 45 46 47 50 56 58 52 52 56 55 52 54 56 58 60 62 58 58 55 55 54 58 64 56 60 58 56 56 57
10 12 17 19 22 23 29 34 40 42 40 41 41 51 53 51 51 48 43 45 44 44 44 49 54 60 59 52 52 52 51 52 53 59 62 62 57 59 61 58 59 58 56 58 57 55 58 58 58
10 9 9 17 15 21 26 34 38 42 41 37 42 51 53 51 51 50 47 46 46 45 45 46 55 62 63 62 55 55 54 51 58 58 64 61 60 63 60 60 59 58 57 57 56 57 57 56 56
11 4 8 13 15 20 21 26 38 40 40 39 43 46 52 51 50 52 50 49 51 51 47 46 52 64 62 64 62 60 60 63 57 59 61 61 60 63 60 59 58 58 57 57 55 54 54 52 50
14 14 11 12 14 17 20 23 29 32 38 38 41 46 50 53 51 53 52 52 53 54 56 53 55 62 65 64 65 63 60 57 59 59 62 60 60 61 62 58 57 57 57 55 52 50 50 47 46
13 13 9 10 13 14 19 17 23 28 34 34 37 43 48 53 53 51 54 52 55 56 62 61 52 57 65 64 64 60 59 59 59 59 59 59 57 58 59 56 55 54 53 50 48 48 47 48 48
12 8 11 13 16 17 18 14 17 26 33 33 35 38 44 50 55 56 55 55 54 60 62 66 63 56 63 66 64 62 64 59 59 58 58 59 56 54 56 53 52 54 50 49 48 49 51 49 49
10 8 9 15 17 20 20 17 23 28 29 32 33 35 39 48 52 57 58 57 58 61 66 67 68 68 65 66 65 61 60 60 58 59 58 58 55 53 55 51 53 52 49 50 51 53 51 50 49
14 13 9 14 17 20 21 22 22 23 25 31 34 35 38 43 51 55 60 61 60 64 67 70 69 72 68 66 66 67 68 66 66 62 57 55 53 53 54 50 51 52 51 52 53 51 50 48 50
17 16 15 15 17 21 19 17 19 20 21 24 28 34 49 50 50 61 65 64 64 69 67 68 69 70 69 68 69 69 64 66 61 59 57 54 52 51 51 53 52 53 50 52 52 51 49 48 51
14 12 12 13 15 20 19 16 20 23 27 32 45 50 53 55 55 60 59 62 63 64 66 67 69 69 69 69 68 68 66 64 62 59 53 53 51 51 52 52 53 52 51 49 51 51 52 48 49
16 13 11 13 14 16 21 12 20 26 33 41 46 49 51 52 53 55 59 61 61 61 63 65 65 66 65 65 64 64 62 61 58 54 53 50 51 51 50 51 52 53 51 52 51 51 52 51 47
18 20 18 16 18 18 18 17 18 28 31 39 47 49 50 53 54 55 55 56 57 59 60 61 63 63 63 61 63 61 59 56 52 49 52 53 53 51 48 50 51 51 50 53 53 53 53 52 49
20 24 22 21 19 17 19 17 16 22 27 41 47 48 48 49 51 52 53 54 54 55 57 59 60 59 59 58 57 57 56 54 50 51 49 46 45 46 49 50 51 52 51 52 53 55 54 52 52
23 25 21 19 15 15 21 18 21 31 30 39 46 47 48 48 49 50 51 51 53 55 56 57 58 56 56 55 55 54 53 53 51 51 46 49 44 44 49 51 52 51 52 51 55 55 53 52 52
23 24 23 24 18 13 23 21 21 35 41 46 46 48 48 47 48 49 50 51 52 54 54 54 54 54 53 53 52 52 51 47 46 49 48 44 43 44 50 48 50 52 52 51 51 50 53 54 55
24 23 23 26 25 20 20 29 35 38 42 45 45 48 49 49 50 50 51 52 53 53 53 52 51 51 50 50 50 51 51 50 49 49 49 43 47 44 46 48 48 49 50 51 52 47 50 53 53
22 24 24 24 27 24 16 20 23 35 37 42 44 46 49 50 50 51 52 53 52 52 51 50 49 49 48 48 48 47 48 47 47 47 47 47 47 46 45 45 46 46 47 50 53 51 50 51 50
19 21 27 29 26 25 24 24 34 35 36 40 41 45 48 48 49 51 51 52 51 50 49 50 48 47 47 47 47 47 46 45 46 47 46 47 47 45 44 44 43 44 45 48 51 50 49 48 50
21 23 28 26 28 27 28 24 30 32 35 39 39 44 46 47 49 50 50 50 50 50 48 48 47 46 45 44 45 48 46 47 46 48 46 47 46 46 45 44 44 44 43 45 46 44 44 43 45

GFSSGP_sfc_dewp_276.txt.gz
Dewpoint
57 53 49 42 34 44 42 42 40 38 39 43 50 51 52 53 54 50 58 59 63 61 65 69 75 75 76 77 77 77 77 77 77 76 76 75 75 74 73 73 73 72 72 71 71 71 71 71 71
41 43 36 33 31 41 47 44 40 42 43 44 52 48 53 53 55 55 51 59 64 63 63 66 75 75 76 76 77 77 77 77 76 75 75 74 74 73 72 71 71 71 70 70 70 70 71 71 72
47 32 28 29 29 36 44 51 53 43 44 42 44 48 51 54 52 51 53 58 63 64 64 71 75 75 75 75 76 76 76 75 75 74 74 73 72 71 71 70 70 69 68 69 70 71 71 72 72
35 27 28 26 26 44 49 50 49 42 42 41 41 45 51 52 53 53 55 58 60 62 70 73 76 75 75 74 74 75 74 74 74 73 73 72 71 71 71 70 71 69 70 71 72 73 73 73 72
26 23 23 23 24 44 49 51 47 50 39 38 42 45 53 57 55 54 55 56 57 64 70 70 75 75 74 73 73 74 74 74 74 73 72 72 72 71 71 71 70 71 71 72 72 73 72 72 72
17 19 18 18 26 34 39 39 40 37 36 38 41 47 52 58 55 56 53 53 55 66 67 70 74 75 75 74 74 74 74 74 73 73 73 72 72 72 71 71 71 71 71 70 70 70 70 70 71
14 16 17 16 31 37 40 46 42 46 36 39 41 45 50 55 56 53 50 52 55 60 65 68 69 72 74 75 75 75 74 73 73 73 73 73 73 72 72 73 72 71 70 68 68 68 68 68 69
13 13 14 14 35 47 52 47 50 53 45 39 40 42 45 51 53 50 49 50 52 57 62 62 67 67 68 70 75 74 73 72 72 72 72 73 73 73 73 73 71 66 67 67 68 68 69 69 69
13 14 12 14 30 41 42 38 46 49 47 40 39 44 48 50 49 47 48 47 50 51 56 59 60 63 63 63 69 72 71 72 71 68 70 70 68 69 67 67 67 68 68 67 68 68 69 69 69
12 15 14 21 28 41 42 43 55 39 42 41 41 46 49 50 50 47 46 46 47 49 51 54 56 59 59 59 67 68 67 65 64 62 65 65 65 63 56 62 68 67 68 68 69 70 70 70 62
14 15 15 19 23 22 36 33 49 52 50 56 55 47 49 50 51 45 43 45 46 46 50 52 64 64 56 64 66 64 63 62 65 65 67 70 65 67 63 64 63 65 66 62 62 61 60 60 59
10 13 15 15 21 20 19 25 41 48 51 59 59 53 49 49 48 44 41 44 44 43 48 53 58 65 69 59 58 63 59 63 63 67 67 71 68 69 67 65 65 64 63 63 63 59 61 60 59
7 8 9 12 17 16 18 22 30 49 47 50 53 53 47 48 47 46 44 45 46 43 47 50 59 67 70 69 66 65 62 62 66 68 68 68 68 68 67 66 65 65 64 62 60 59 59 55 54
6 5 6 8 7 15 14 17 21 48 55 52 52 51 47 46 48 50 50 50 55 53 51 54 60 70 66 71 70 69 69 69 66 67 66 66 68 68 66 65 65 65 62 60 58 55 56 54 52
10 7 12 2 7 11 14 19 18 37 49 49 39 42 48 48 46 52 51 57 56 57 59 63 64 67 71 71 70 71 69 64 68 66 66 64 65 65 66 64 65 62 59 57 56 55 55 54 52
13 12 10 8 8 9 13 14 17 25 33 42 37 40 44 50 48 51 54 56 61 58 62 63 53 65 70 71 70 69 68 68 68 67 65 62 62 63 63 61 61 59 58 56 56 54 53 53 52
17 8 8 7 9 10 13 14 14 19 26 33 32 36 43 47 53 55 55 55 60 64 64 62 66 62 67 72 69 70 70 68 68 64 65 62 60 58 61 59 59 59 57 56 54 54 54 51 51
10 9 6 10 12 15 14 19 16 21 26 32 34 31 38 45 49 58 56 54 59 61 70 70 68 71 70 69 72 69 67 68 68 67 66 63 60 57 60 56 57 56 55 54 55 55 53 51 50
9 11 11 9 16 17 17 21 18 21 27 26 29 33 45 54 61 65 66 62 70 70 71 74 74 73 71 69 67 68 67 69 67 67 62 62 59 55 59 57 55 57 54 55 55 52 51 50 50
12 12 15 15 14 19 19 19 19 21 21 24 24 44 52 57 60 62 61 61 69 70 72 72 72 73 71 70 68 68 68 66 67 65 62 59 58 56 55 56 56 56 53 55 54 53 51 51 50
18 17 16 12 13 18 19 19 21 16 20 22 30 45 51 60 58 59 58 66 67 67 68 68 69 68 70 69 68 67 67 67 66 63 62 59 56 53 55 56 56 56 55 53 54 54 53 49 50
19 12 10 10 11 10 18 15 24 20 23 25 39 47 50 52 59 60 62 62 63 64 66 66 66 66 66 66 68 68 65 61 60 58 57 57 55 55 53 55 55 56 54 55 54 53 54 52 49
17 15 17 14 13 16 13 13 19 21 26 35 48 49 50 53 55 56 56 57 59 61 62 64 64 64 64 64 64 64 62 60 58 58 59 59 59 57 52 54 55 55 54 54 55 55 55 54 52
16 18 21 22 18 17 17 15 14 24 29 43 46 46 48 50 52 53 54 55 56 57 59 60 61 62 62 61 60 60 59 58 55 55 55 52 53 54 56 53 55 55 55 54 53 55 55 55 53
18 23 22 19 17 14 19 16 21 30 42 46 46 46 47 49 50 51 52 53 55 56 57 57 59 58 60 59 57 57 57 57 58 55 52 53 52 53 55 55 55 54 54 54 53 54 55 52 52
18 23 23 23 18 16 21 20 26 32 43 46 46 46 47 48 48 49 51 52 53 54 55 56 56 57 56 56 55 55 56 53 53 52 52 50 48 49 53 52 53 53 53 53 53 53 53 53 53
21 24 23 29 26 21 23 31 34 38 40 43 45 46 46 48 49 50 51 53 54 54 55 55 54 53 53 53 55 55 55 54 54 55 55 49 52 46 49 51 51 52 51 52 53 50 52 52 51
21 23 25 26 27 25 22 28 27 38 39 41 44 46 48 50 49 51 52 54 53 53 55 54 53 51 51 51 52 51 53 52 52 53 52 52 52 51 50 50 50 50 50 51 53 51 49 49 50
18 18 25 32 28 28 25 26 41 39 40 41 43 47 48 48 49 51 52 52 52 52 50 52 50 49 50 50 51 52 50 50 51 52 51 52 52 51 49 49 49 50 50 51 51 50 48 45 46
18 22 25 27 32 31 32 32 33 41 37 43 39 47 48 47 49 50 51 52 51 51 50 50 51 48 48 47 48 50 50 50 52 52 51 52 51 50 48 47 47 46 47 48 48 45 44 43 44

GFSSGP_sfc_dewp_279.txt.gz
Dewpoint
60 56 53 47 34 43 43 51 56 52 49 52 51 52 54 55 52 47 59 60 64 68 72 74 77 77 77 76 76 76 77 77 77 77 76 76 76 75 74 74 74 74 73 73 72 72 73 73 73
45 40 46 40 30 39 44 50 54 54 51 50 46 54 52 55 55 55 60 61 63 67 68 73 76 77 77 77 77 77 77 77 77 76 76 76 75 74 73 73 73 73 72 72 73 73 73 73 73
52 42 30 29 30 37 45 45 43 47 50 48 48 55 53 53 52 52 62 62 61 62 68 73 76 76 77 76 77 76 76 76 76 76 75 74 74 73 73 72 72 72 72 72 72 73 74 73 73
38 34 30 26 25 44 48 49 44 48 48 47 49 51 52 53 53 55 64 63 61 63 70 75 75 76 76 76 76 76 76 75 75 74 74 73 73 73 73 72 72 73 73 72 73 74 73 73 72
40 28 21 27 28 44 46 53 52 49 49 47 51 53 52 53 53 55 63 63 65 67 70 73 75 75 75 75 75 75 75 74 74 74 73 73 73 73 73 73 72 73 73 72 72 72 71 70 71
29 20 17 16 26 44 50 57 55 53 51 48 52 54 55 54 54 57 58 63 69 67 69 71 75 75 75 75 75 74 74 74 73 73 73 73 73 73 73 73 73 73 72 70 70 69 68 68 68
25 16 13 13 16 40 49 55 53 55 54 48 52 54 55 54 55 54 55 68 68 68 69 71 72 73 74 74 74 74 74 73 73 73 73 73 73 72 72 72 73 72 68 66 66 67 67 68 68
18 14 11 12 15 40 45 45 51 55 46 49 50 49 53 55 56 53 57 63 65 68 68 69 70 71 72 73 75 75 74 73 73 73 73 73 73 73 73 73 73 71 68 68 68 68 68 69 69
20 15 12 13 33 41 46 43 53 55 53 53 46 50 54 55 53 49 49 54 64 64 66 67 68 68 68 71 73 74 73 73 73 72 71 70 69 69 71 73 72 70 69 69 69 69 69 70 70
16 13 13 15 39 37 41 44 52 50 55 54 50 50 51 52 49 47 47 48 57 60 61 63 63 65 64 68 70 69 69 70 69 64 64 67 66 66 68 68 71 69 69 69 69 69 71 69 62
15 11 12 16 24 39 39 45 52 47 48 54 54 53 51 49 48 47 47 48 49 56 59 60 60 62 61 64 66 66 67 67 65 62 62 64 61 63 62 61 61 60 66 62 62 60 59 58 57
10 9 10 15 17 24 19 43 45 47 51 52 52 54 55 53 50 46 45 47 47 50 53 57 59 60 62 64 64 66 64 63 62 62 62 65 65 63 62 62 60 60 60 59 59 58 57 56 53
8 8 9 8 9 17 19 34 47 50 51 51 54 51 53 55 50 45 44 46 45 46 52 56 57 62 63 62 61 61 59 61 63 64 63 63 65 63 63 62 62 60 59 57 56 55 54 53 52
10 11 8 6 6 10 16 42 47 49 52 52 52 51 53 55 50 46 47 46 44 46 51 57 59 63 61 64 60 61 62 61 65 64 63 62 64 62 61 61 61 57 56 55 53 52 51 52 51
18 14 9 11 7 7 12 14 29 48 50 51 54 55 54 54 53 48 49 50 49 46 57 60 63 64 63 62 63 62 63 62 64 62 61 60 60 59 59 60 58 55 55 53 53 52 53 52 51
17 15 14 11 13 4 9 10 16 46 46 46 46 48 50 53 54 55 62 62 60 54 57 61 61 66 64 64 65 62 62 64 64 62 60 60 58 59 58 57 57 55 54 53 53 53 52 51 50
19 15 13 12 11 8 9 10 15 40 46 46 46 45 47 53 62 63 64 65 64 63 58 59 63 65 64 66 65 66 63 63 61 60 60 60 60 60 60 58 57 53 54 53 53 52 51 49 49
15 15 13 9 9 10 11 13 16 21 26 42 39 50 58 62 61 62 64 66 66 63 68 62 63 64 66 67 66 64 63 62 62 62 62 61 59 56 56 55 53 54 53 51 52 50 50 49 49
16 15 11 14 15 14 14 15 21 20 24 29 48 51 60 61 59 60 62 64 66 62 68 71 69 69 70 68 66 65 63 63 63 61 62 61 57 53 54 52 53 52 51 51 51 50 49 49 50
17 15 14 19 20 19 19 19 24 23 24 30 54 54 56 60 61 60 61 60 59 61 68 68 68 68 67 66 65 66 64 65 64 62 60 56 54 52 51 51 53 51 51 50 50 50 51 49 50
16 21 19 18 15 14 19 22 21 21 23 49 55 57 56 56 60 60 59 58 60 63 67 66 66 66 66 66 65 65 65 64 63 60 57 55 52 50 51 51 51 51 51 50 50 51 50 50 50
17 21 19 15 14 12 20 16 21 22 22 42 50 57 55 54 55 60 64 63 61 64 66 63 63 63 62 64 64 62 61 59 58 55 55 52 51 51 51 50 51 51 50 50 51 52 52 51 49
19 23 20 22 22 15 15 15 17 25 21 48 50 56 57 59 60 60 60 61 62 62 62 61 60 60 59 59 58 57 54 55 53 52 52 53 53 52 51 50 50 50 50 50 50 50 51 53 52
23 22 20 24 23 19 17 18 14 19 37 46 47 53 53 53 54 55 57 58 59 60 59 59 58 58 57 56 56 53 52 52 51 50 48 47 49 50 50 49 50 50 49 49 50 51 50 51 51
20 19 23 23 20 20 20 19 16 31 45 45 46 49 50 51 52 53 55 56 57 57 57 57 57 56 55 53 52 52 52 49 49 48 48 47 46 47 46 48 47 47 49 50 50 50 50 50 49
21 21 26 20 22 19 24 24 24 46 46 46 46 48 49 50 51 52 53 55 56 56 56 56 55 54 53 51 50 51 49 49 48 49 46 48 46 45 46 45 46 47 49 48 49 50 50 49 49
18 21 23 25 25 24 25 35 40 45 45 45 46 47 48 49 50 51 53 54 54 54 55 54 52 51 50 51 51 49 48 48 47 47 47 47 47 46 46 46 47 46 45 45 47 47 47 47 46
19 25 22 27 23 23 24 30 36 42 44 45 45 46 48 49 50 52 53 53 53 53 53 51 50 50 50 48 48 49 46 46 46 47 46 45 46 46 47 46 46 47 47 48 48 47 45 43 44
19 19 24 29 28 25 25 29 35 40 44 44 45 48 48 49 51 53 53 52 52 51 50 50 48 48 47 48 47 46 45 44 46 44 46 46 47 46 46 45 45 45 45 45 43 42 42 41 41
21 20 24 27 26 33 34 34 40 41 41 45 45 48 48 50 51 52 51 51 51 51 50 50 49 48 45 46 46 45 44 45 46 46 45 46 46 45 46 45 45 45 43 42 40 39 40 40 40

GFSSGP_sfc_dewp_285.txt.gz
Dewpoint
63 60 52 45 35 44 43 48 53 48 50 54 54 54 52 54 53 52 60 61 69 72 75 76 76 75 75 76 76 76 76 76 75 75 75 74 74 73 73 74 73 72 71 71 72 72 71 70 69
47 44 43 35 37 40 42 49 49 49 53 54 52 52 54 53 59 59 60 65 69 73 74 75 76 75 75 75 76 76 76 75 75 75 74 74 73 72 72 72 72 71 71 71 71 70 70 69 68
51 36 29 30 32 37 40 48 49 49 54 52 52 54 52 56 60 60 62 67 71 73 74 75 76 75 75 75 75 76 76 75 75 74 74 73 72 72 72 72 71 71 70 70 70 70 70 69 68
40 33 26 25 32 29 46 47 49 52 52 51 52 50 52 58 60 60 64 68 69 70 73 76 76 76 76 75 75 76 75 75 74 74 73 72 72 72 71 71 72 71 71 70 70 70 70 69 69
38 25 20 23 17 45 50 50 51 49 52 52 52 53 52 58 61 61 63 64 68 69 72 75 76 76 75 74 75 75 75 75 75 73 72 72 72 72 71 71 71 71 70 70 69 70 70 68 68
29 21 13 12 26 46 50 51 50 47 53 54 53 54 54 62 59 59 60 62 66 70 72 74 76 76 76 75 75 75 75 75 74 74 73 72 72 72 72 72 72 71 72 71 70 69 69 68 68
28 23 19 14 13 38 47 52 47 52 52 53 56 53 54 61 62 58 59 63 65 70 71 72 73 74 75 76 75 75 74 74 74 73 73 72 72 72 72 72 72 73 73 71 69 68 68 69 70
26 19 15 14 14 22 51 53 51 52 52 57 57 54 50 56 63 63 66 65 65 69 70 70 71 72 72 72 74 74 74 73 73 72 72 72 72 73 72 72 72 73 73 72 70 70 70 71 71
20 16 15 14 17 41 51 50 52 54 53 54 55 55 54 57 63 67 66 66 65 66 68 69 69 70 70 70 71 73 72 72 73 72 73 72 69 69 70 71 73 73 73 72 71 69 67 64 60
19 15 14 15 23 42 49 50 51 52 51 52 53 54 56 63 65 65 65 65 63 63 67 68 68 69 69 68 69 70 70 70 70 69 68 68 66 66 68 70 70 70 66 64 62 61 59 56 53
17 16 16 16 15 42 47 49 53 51 48 51 51 53 55 64 63 64 64 65 63 63 65 67 67 67 68 67 69 68 68 68 68 67 63 61 62 62 62 61 60 58 58 54 54 53 52 51 51
16 15 15 13 25 41 46 49 49 49 45 51 53 53 54 57 61 62 63 63 63 64 64 65 66 66 66 67 68 67 66 66 66 63 60 63 62 61 61 59 56 55 54 52 53 52 52 51 51
13 15 14 11 11 34 46 48 49 48 49 50 54 53 53 53 54 60 60 62 63 62 62 64 65 65 65 66 67 65 65 66 63 61 63 63 60 59 59 56 54 53 53 52 52 52 52 51 50
17 14 15 18 17 24 46 47 46 45 47 49 54 53 52 53 54 53 49 51 59 61 61 63 63 63 63 65 63 63 65 63 63 62 62 60 58 57 57 54 53 53 53 52 52 52 51 50 49
18 19 18 17 12 40 45 45 45 45 50 49 53 52 52 56 56 55 50 48 53 56 59 60 61 62 63 63 62 62 63 63 62 60 59 57 56 56 56 54 53 53 53 53 52 50 50 49 49
19 18 17 16 18 33 18 8 44 45 48 49 49 50 51 56 59 59 55 53 52 56 57 59 61 61 62 61 61 61 63 61 60 58 57 58 57 56 55 54 54 54 52 52 50 49 48 48 49
19 19 18 16 17 14 12 10 13 45 46 47 48 50 50 57 61 61 59 58 55 56 58 61 62 61 63 63 63 63 60 59 58 58 58 58 58 57 56 54 54 52 51 52 50 48 48 48 48
18 17 19 16 17 16 16 14 15 39 46 47 48 49 54 57 59 61 63 63 66 68 65 63 64 63 63 62 60 60 59 59 59 59 59 58 57 55 55 53 52 50 50 51 49 48 48 48 48
23 22 20 20 20 18 16 14 13 44 46 46 47 47 54 57 59 63 63 66 67 67 67 66 65 64 64 62 60 59 59 59 59 60 59 57 56 54 52 52 51 51 50 50 48 48 47 48 48
25 21 19 20 20 18 13 17 29 44 45 45 46 51 53 57 60 61 62 65 65 66 66 65 66 66 65 64 63 62 60 60 59 59 57 56 54 51 51 52 50 50 49 48 48 48 48 48 48
22 20 19 18 19 18 15 15 46 51 54 51 58 57 57 57 59 59 61 63 64 64 65 65 64 64 63 63 63 62 61 60 58 57 54 54 52 50 50 51 50 49 48 48 47 47 47 46 48
20 21 20 20 20 14 17 15 25 50 52 54 56 58 56 56 58 57 61 62 63 63 62 61 62 63 63 63 62 60 59 57 55 54 51 50 51 51 51 50 50 49 48 47 46 49 47 46 46
21 24 21 22 19 18 18 14 14 48 50 52 53 54 57 57 57 56 59 61 62 61 60 58 58 58 59 58 59 58 53 51 50 47 46 47 47 49 50 49 49 49 49 47 47 47 46 46 47
22 23 22 25 21 16 17 16 17 38 48 51 54 53 56 61 60 60 60 61 59 59 57 56 55 54 53 53 52 51 50 48 47 45 45 45 45 45 46 45 44 45 46 47 47 47 46 46 46
21 20 18 18 17 15 19 19 19 28 37 51 53 52 58 60 59 58 58 59 58 56 55 54 53 51 51 50 50 50 49 47 46 45 45 43 43 43 43 44 44 44 45 45 46 45 46 49 47
19 20 21 14 16 15 23 21 24 47 46 53 54 54 58 58 59 59 59 57 56 55 54 53 51 50 49 49 48 47 47 47 46 45 45 45 43 44 44 45 45 45 46 45 45 45 44 43 42
22 20 21 20 24 21 21 28 45 51 55 56 56 55 55 56 57 58 57 56 54 54 53 52 51 49 49 49 47 47 46 45 45 45 44 43 43 45 45 44 44 45 43 41 41 40 39 39 38
19 22 19 22 14 14 19 26 37 46 50 52 53 54 53 54 55 56 56 55 55 54 53 52 50 49 49 48 47 45 45 45 45 44 43 43 44 44 44 43 44 43 41 40 37 36 37 37 37
17 19 24 22 24 19 17 20 29 44 50 51 53 53 52 52 54 55 55 55 55 54 52 50 49 49 48 47 45 44 44 44 44 43 44 44 44 43 43 44 44 42 40 39 35 35 36 36 36
19 19 23 22 19 28 25 22 29 45 48 52 51 51 51 52 53 54 54 54 53 52 50 49 48 47 47 46 45 44 44 45 44 43 44 44 43 42 42 44 44 42 41 39 37 36 36 36 37

GFSSGP_sfc_dewp_291.txt.gz
Dewpoint
64 61 51 43 39 42 42 44 51 49 50 53 51 49 47 51 49 49 64 62 61 70 72 71 75 76 76 76 76 76 76 76 75 74 74 73 73 73 73 73 72 72 72 72 71 70 69 68 67
47 49 42 35 30 26 38 46 48 49 51 53 53 52 51 51 58 60 60 65 66 71 72 69 75 76 76 76 76 76 76 75 75 74 73 73 73 73 72 72 71 71 71 70 70 68 68 67 67
49 34 31 33 32 23 32 45 47 49 52 52 53 52 49 50 59 61 62 66 67 71 72 71 75 76 76 75 76 76 75 75 74 73 73 73 72 72 71 71 71 71 70 69 69 69 68 67 67
40 30 27 23 19 28 37 47 48 49 51 52 51 49 53 59 60 61 65 68 65 70 71 74 75 76 76 75 75 76 75 75 74 73 73 72 71 71 70 70 70 70 70 69 68 68 69 68 68
30 25 22 19 17 28 48 48 49 48 50 50 52 49 52 60 62 65 66 67 65 70 70 71 75 75 76 75 75 76 75 75 75 73 72 72 71 70 69 69 70 69 69 69 68 69 70 70 70
28 23 20 15 15 21 46 49 49 46 50 52 51 49 53 60 63 65 64 64 66 70 71 71 74 75 75 75 75 76 75 75 75 74 72 71 71 69 69 69 70 70 70 70 69 70 70 69 67
24 25 19 16 16 19 39 50 47 46 50 50 52 51 56 59 61 62 61 64 68 70 71 71 69 71 75 75 75 76 75 75 75 74 73 72 71 69 69 70 70 71 72 71 70 69 66 64 64
27 24 19 16 16 17 38 49 50 49 47 55 56 52 53 58 61 59 59 63 65 69 71 71 71 67 67 68 75 75 75 75 74 73 72 71 70 70 70 71 71 72 72 68 66 64 62 61 61
21 21 19 17 16 18 47 46 49 52 50 53 53 54 55 59 58 55 56 58 61 65 69 70 70 69 68 67 70 74 73 73 73 71 71 70 66 67 67 70 71 70 68 65 63 62 60 57 56
22 18 18 18 17 25 36 46 46 48 48 50 51 59 60 58 56 53 52 52 55 59 63 66 68 68 68 67 69 70 68 67 67 66 68 66 68 68 66 68 68 65 63 62 61 59 56 54 53
21 14 16 16 17 27 26 44 48 47 43 49 49 58 60 59 57 54 51 51 53 56 60 64 68 70 68 66 67 68 66 67 68 69 69 68 66 65 63 63 59 60 58 56 56 55 54 53 52
18 19 18 16 16 22 29 44 47 48 44 53 52 56 60 60 58 57 55 53 55 56 59 61 65 68 69 66 66 66 66 67 67 67 68 66 64 64 61 58 58 59 57 58 56 53 55 53 52
18 17 17 17 15 19 36 36 35 46 47 50 54 55 59 60 60 61 60 59 59 59 59 60 64 67 68 69 66 66 66 65 66 67 65 64 64 63 60 59 57 57 57 55 55 53 52 50 49
19 17 18 19 20 17 23 32 44 40 47 50 52 55 56 59 61 62 64 63 65 65 64 62 63 67 66 67 68 66 67 67 66 65 64 65 63 62 59 58 57 57 58 55 53 51 51 49 48
21 20 19 19 19 32 38 35 39 40 48 48 50 53 55 59 59 62 63 64 65 66 68 66 65 66 67 67 67 67 66 64 64 64 65 63 62 62 60 58 61 61 56 53 52 51 51 49 48
19 20 13 17 19 42 35 14 23 35 44 44 48 49 53 55 58 60 62 63 66 66 67 68 63 64 67 66 66 65 65 65 64 63 61 61 61 61 61 60 59 55 54 53 52 50 49 48 48
21 10 18 17 25 41 34 22 23 22 39 43 47 49 51 53 57 59 58 59 61 66 67 67 67 64 66 67 66 66 67 64 62 61 60 61 59 59 60 57 55 54 53 52 50 50 50 48 47
12 16 19 19 18 21 21 24 24 25 25 29 43 47 50 53 55 58 63 63 62 59 64 67 66 67 67 66 65 63 63 62 61 60 60 61 59 57 57 55 54 54 53 52 51 52 50 49 48
21 21 21 22 23 22 22 23 23 32 40 34 42 46 50 53 58 63 65 66 65 64 64 66 66 68 65 64 62 62 61 61 61 61 60 60 59 55 56 54 54 55 54 53 53 50 50 45 48
23 22 20 21 22 23 23 22 23 44 43 44 44 47 49 55 60 63 66 67 67 66 66 67 67 68 67 65 65 63 62 62 62 61 61 58 55 54 55 57 55 56 53 54 53 52 46 46 47
21 21 21 19 22 24 21 20 23 37 51 50 48 48 50 54 59 62 64 65 66 66 66 67 67 67 67 66 64 63 63 62 61 61 57 56 54 54 56 56 56 56 53 50 52 51 51 44 46
20 21 21 22 22 17 22 14 25 30 40 50 50 52 50 55 59 61 63 64 65 65 66 67 66 67 66 66 64 64 62 61 62 61 53 54 55 55 54 54 53 54 51 52 49 49 50 50 45
20 23 23 23 23 23 20 17 19 39 26 29 50 54 55 57 59 60 62 63 63 65 66 66 67 66 66 66 66 64 63 59 53 52 53 54 54 52 49 49 50 50 47 50 51 50 51 48 47
22 23 25 26 24 20 21 18 16 20 31 38 51 55 56 57 59 60 61 62 62 63 64 65 65 64 65 65 64 63 61 56 52 51 50 48 48 48 50 48 51 51 50 50 50 52 51 51 48
23 25 21 18 18 16 24 20 21 28 31 42 43 49 57 57 59 59 60 61 62 62 62 61 62 60 61 61 59 58 57 56 55 52 47 47 45 46 51 50 51 49 52 51 50 49 47 45 43
24 27 21 18 16 14 24 20 21 34 42 52 52 52 56 57 58 59 60 61 61 61 61 59 58 57 57 56 55 55 54 49 49 50 47 45 45 47 51 50 50 50 49 49 48 42 42 46 43
23 23 26 26 26 20 19 25 29 37 45 50 53 56 57 58 58 59 59 60 61 59 58 58 57 55 54 53 53 53 52 51 49 51 50 47 50 47 49 49 49 49 48 48 48 41 45 45 45
24 26 24 26 22 19 18 23 20 30 31 39 52 55 57 59 58 58 58 60 60 59 57 56 55 53 52 52 51 50 51 51 50 50 50 50 51 49 48 48 48 48 48 48 49 45 45 46 43
20 19 27 28 27 20 20 19 35 35 37 39 40 52 56 58 57 57 57 59 59 57 55 54 52 51 50 50 50 50 50 50 50 50 50 50 51 50 47 47 48 48 48 49 49 49 48 46 46
21 21 28 19 23 28 26 23 32 34 33 37 42 52 55 58 58 58 58 58 57 56 54 53 53 50 50 50 50 50 50 50 51 51 51 51 50 50 48 48 47 47 48 49 49 48 47 47 47